User: anonymous   Login
Location: Aressy
(43.2833°N, 0.3167°W)
Time: 03:34:54
(UTC+00:00)
Language:

SJ 16-02 - Orbit

View from above orbital plane
View from above orbital plane
View from above satellite
View from above satellite

Ground track
Ground track

The orbit data is extracted from the following two-line orbital elements,

1 41634U 16043A   21106.83305595  .00000128  00000-0  17858-4 0  9994
2 41634  75.0029 225.4207 0008408 283.7516  76.2738 14.85786884260298
Epoch (UTC): 16 April 2021 19:59:36
Eccentricity: 0.0008408
inclination: 75.0029°
perigee height: 605 km
apogee height: 617 km
right ascension of ascending node: 225.4207°
argument of perigee: 283.7516°
revolutions per day: 14.85786884
mean anomaly at epoch: 76.2738°
orbit number at epoch: 26029

The dashed part of the orbit path shows where the satellite is in the earth's shadow,  

DLR